Change the Weather History Date:

Thursday, January 19, 2012

  Actual Average Record
Temperature  
Mean Temperature 24 °F 29 °F  
Max Temperature 32 °F 40 °F 67 °F (2015)
Min Temperature 15 °F 18 °F -2 °F (2008)
Degree Days  
Heating Degree Days 41 36  
Month to date heating degree days 603 684  
Since 1 July heating degree days 2517 2727  
Cooling Degree Days 0 0  
Month to date cooling degree days 0 0  
Year to date cooling degree days 0 0  
Moisture  
Dew Point 10 °F    
Average Humidity 60    
Maximum Humidity 84    
Minimum Humidity 35    
Precipitation  
Precipitation 0.00 in 0.03 in 0.13 in (2011)
Month to date precipitation 0.01 0.56  
Year to date precipitation 0.01 0.56  
Sea Level Pressure  
Sea Level Pressure 30.03 in    
Wind  
Wind Speed 8 mph (NNE)    
Max Wind Speed 17 mph    
Max Gust Speed 22 mph    
Visibility 10 miles    
Events      
T = Trace of Precipitation, MM = Missing Value Source: NWS Daily Summary

Daily Weather History Graph

Daily Weather History Graph

Search for Another Location

Airport or City:

Trip Planner

Search our weather history database for the weather conditions in past years. The results will help you decide how hot, cold, wet, or windy it might be!

Date:

Astronomy

Jan. 19, 2012 Rise Set
Actual Time 7:36 AM CST 5:26 PM CST
Civil Twilight 7:07 AM CST 5:55 PM CST
Nautical Twilight 6:35 AM CST 6:28 PM CST
Astronomical Twilight 6:03 AM CST 7:00 PM CST
Moon 4:13 AM CST (1/19) 2:00 PM CST (1/19)
Length of Visible Light 10h 47m
Length of Day
9h 49m
Waning Crescent, 15% of the Moon is Illuminated
Jan 19
Waning Crescent
Jan 23
New
Jan 30
First Quarter
Feb 7
Full
Feb 14
Last Quarter

Hourly Weather History & Observations

Time (CST) Temp. Windchill Dew Point Humidity Pressure Visibility Wind Dir Wind Speed Gust Speed Precip Events Conditions
12:52 AM 32.0 °F 28.7 °F 18.0 °F 56% 29.88 in 10.0 mi East 3.5 mph - N/A   Clear
1:52 AM 30.0 °F - 19.0 °F 64% 29.88 in 10.0 mi Calm Calm - N/A   Clear
2:52 AM 27.0 °F - 18.0 °F 69% 29.90 in 10.0 mi Calm Calm - N/A   Clear
3:52 AM 21.9 °F 14.5 °F 17.1 °F 82% 29.92 in 10.0 mi North 5.8 mph - N/A   Clear
4:52 AM 26.1 °F 16.2 °F 19.0 °F 75% 29.94 in 10.0 mi North 10.4 mph - N/A   Clear
5:52 AM 25.0 °F 17.1 °F 17.1 °F 72% 29.96 in 10.0 mi North 6.9 mph - N/A   Clear
6:52 AM 24.1 °F 15.2 °F 17.1 °F 75% 29.98 in 10.0 mi North 8.1 mph - N/A   Clear
7:52 AM 23.0 °F 13.9 °F 16.0 °F 74% 30.01 in 10.0 mi North 8.1 mph - N/A   Partly Cloudy
8:32 AM 21.2 °F 9.5 °F 15.8 °F 80% 30.02 in 10.0 mi NNE 11.5 mph - N/A   Mostly Cloudy
8:52 AM 21.9 °F 9.2 °F 14.0 °F 72% 30.06 in 10.0 mi NNE 13.8 mph 20.7 mph N/A   Overcast
9:52 AM 21.0 °F 8.1 °F 9.0 °F 60% 30.08 in 10.0 mi NNE 13.8 mph 20.7 mph N/A   Overcast
10:27 AM 23.0 °F 11.7 °F 8.6 °F 54% 30.06 in 10.0 mi NNE 11.5 mph - N/A   Scattered Clouds
10:52 AM 24.1 °F 13.1 °F 7.0 °F 48% 30.09 in 10.0 mi NNE 11.5 mph 17.3 mph N/A   Clear
11:52 AM 25.0 °F 13.1 °F 6.1 °F 45% 30.09 in 10.0 mi North 13.8 mph 18.4 mph N/A   Clear
1:52 PM 27.0 °F 18.0 °F 6.1 °F 41% 30.07 in 10.0 mi NE 9.2 mph - N/A   Clear
2:52 PM 28.0 °F 17.5 °F 5.0 °F 38% 30.06 in 10.0 mi NE 12.7 mph 16.1 mph N/A   Clear
3:52 PM 27.0 °F 18.0 °F 3.0 °F 36% 30.09 in 10.0 mi NE 9.2 mph - N/A   Clear
4:52 PM 24.1 °F 13.7 °F 3.0 °F 40% 30.09 in 10.0 mi NE 10.4 mph - N/A   Clear
5:52 PM 21.9 °F 12.5 °F 3.0 °F 44% 30.10 in 10.0 mi NE 8.1 mph - N/A   Clear
6:52 PM 19.9 °F 11.1 °F 3.0 °F 48% 30.12 in 10.0 mi NE 6.9 mph - N/A   Clear
9:52 PM 17.1 °F 7.6 °F 3.0 °F 54% 30.13 in 10.0 mi NNE 6.9 mph - N/A   Clear
10:52 PM 16.0 °F 6.3 °F 3.0 °F 57% 30.11 in 10.0 mi NE 6.9 mph - N/A   Clear
11:52 PM 15.1 °F 5.2 °F 3.0 °F 59% 30.09 in 10.0 mi East 6.9 mph - N/A   Clear